DW8824 Weather Reports


Display with metric or nautical units.
time (UTC)temp
F
wind
direction
speed
MPH
gust
MPH
rain 1hr
in
rain 24hr
in
rain mn
in
humidity
%
barometer
mb
20260903041905 67 121 2.0 10.0 0.01 0.32 0.04 86 1024.5
20260903041405 67 122 7.0 14.0 0.01 0.32 0.04 87 1024.4
20260903040905 68 130 6.0 13.0 0.00 0.31 0.03 88 1024.3
20260903035405 68 92 1.0 5.0 0.00 0.31 0.03 87 1023.9
20260903034904 68 129 4.0 8.0 0.00 0.31 0.03 87 1023.9
20260903034405 68 96 2.0 8.0 0.01 0.31 0.03 87 1024.0
20260903033905 68 93 5.0 15.0 0.01 0.31 0.03 87 1024.0
20260903033404 68 76 7.0 13.0 0.01 0.31 0.03 87 1024.1
20260903032905 69 108 7.0 13.0 0.01 0.31 0.03 87 1024.0
20260903032405 69 102 6.0 15.0 0.02 0.31 0.03 87 1023.9
20260903031404 68 70 5.0 13.0 0.02 0.31 0.03 87 1023.9
20260903030405 68 95 1.0 3.0 0.02 0.31 0.03 87 1023.8
20260903025905 68 135 2.0 8.0 0.02 0.31 0.03 86 1023.8
20260903025405 68 110 1.0 7.0 0.02 0.31 0.03 86 1023.6
20260903024906 68 131 3.0 12.0 0.02 0.31 0.03 86 1023.5
20260903023905 67 151 6.0 10.0 0.02 0.31 0.02 85 1023.5
20260903023405 67 169 3.0 9.0 0.02 0.31 0.02 84 1023.6
20260903022905 68 111 5.0 13.0 0.02 0.31 0.02 83 1023.7
20260903022404 69 99 9.0 15.0 0.00 0.29 0.01 82 1023.7
20260903021905 69 95 2.0 13.0 0.00 0.29 0.01 84 1023.5
20260903021405 69 165 0.0 0.0 0.00 0.29 0.01 84 1023.3
20260903020904 69 165 0.0 0.0 0.00 0.29 0.01 84 1023.3
20260903020405 69 165 0.0 0.0 0.00 0.29 0.01 83 1023.2
20260903015904 69 161 0.0 0.0 0.00 0.29 0.01 83 1023.3
20260903015405 70 164 0.0 2.0 0.00 0.29 0.01 82 1023.2
20260903014905 71 164 1.0 5.0 0.00 0.29 0.01 82 1023.2
20260903014405 71 139 0.0 3.0 0.00 0.29 0.01 81 1023.2
20260903013905 71 136 1.0 8.0 0.00 0.29 0.01 81 1023.2
20260903013405 71 163 5.0 10.0 0.00 0.29 0.01 81 1023.1
20260903012905 71 121 4.0 9.0 0.00 0.29 0.01 81 1023.1
20260903012405 71 122 2.0 9.0 0.00 0.29 0.01 81 1023.1
20260903010405 72 116 3.0 10.0 0.00 0.29 0.01 80 1022.9
20260903005905 72 117 5.0 12.0 0.00 0.29 0.01 80 1022.9
20260903005405 72 129 5.0 12.0 0.00 0.29 0.01 80 1022.8
20260903004405 72 116 4.0 13.0 0.00 0.29 0.01 79 1022.8
20260903003905 72 99 5.0 14.0 0.00 0.29 0.01 79 1022.8
20260903003405 72 94 5.0 13.0 0.00 0.29 0.01 80 1022.8
20260903002905 72 92 5.0 13.0 0.00 0.29 0.01 80 1022.7
20260903002405 72 133 5.0 12.0 0.00 0.29 0.01 80 1022.8
20260903001905 72 96 3.0 9.0 0.00 0.29 0.01 80 1022.7
20260903000905 72 96 3.0 7.0 0.00 0.29 0.01 79 1022.7
20260903000405 72 122 6.0 12.0 0.00 0.29 0.01 79 1022.8
20260902235905 72 79 5.0 13.0 0.00 0.29 0.01 80 1022.8
20260902235405 72 94 6.0 12.0 0.00 0.29 0.01 81 1022.8
20260902234405 72 84 5.0 12.0 0.00 0.29 0.01 80 1022.8
20260902233905 72 102 6.0 13.0 0.00 0.29 0.01 80 1022.7
20260902233405 72 79 7.0 15.0 0.00 0.29 0.01 79 1022.7
20260902232905 72 106 7.0 16.0 0.00 0.29 0.01 79 1022.7
20260902231405 71 68 5.0 14.0 0.01 0.29 0.01 80 1022.6
20260902230905 71 106 4.0 10.0 0.01 0.29 0.01 80 1022.5
20260902230405 71 89 5.0 12.0 0.01 0.29 0.01 80 1022.5
20260902225905 71 91 6.0 14.0 0.01 0.29 0.01 80 1022.5
20260902224905 71 103 5.0 12.0 0.01 0.29 0.01 79 1022.6
20260902224405 72 87 7.0 13.0 0.01 0.29 0.01 79 1022.6
20260902223905 71 86 6.0 13.0 0.01 0.29 0.01 78 1022.6
20260902222405 71 91 6.0 13.0 0.00 0.28 0.00 81 1022.7
20260902221905 71 92 6.0 12.0 0.00 0.28 0.00 81 1022.7
20260902221404 71 99 6.0 15.0 0.00 0.28 0.00 80 1022.8
20260902220905 71 122 7.0 14.0 0.00 0.28 0.00 81 1022.8
20260902220405 71 119 5.0 12.0 0.00 0.28 0.00 82 1022.8
20260902215905 71 107 7.0 12.0 0.00 0.28 0.00 82 1022.9
20260902214905 70 111 5.0 12.0 0.00 0.28 0.00 83 1023.0
20260902214405 69 90 6.0 12.0 0.00 0.28 0.00 82 1023.1
20260902213905 70 129 5.0 13.0 0.00 0.28 0.00 82 1023.2
20260902213404 71 116 7.0 14.0 0.00 0.28 0.00 82 1023.3
20260902212905 71 111 6.0 17.0 0.00 0.28 0.00 82 1023.4
20260902211405 71 90 6.0 14.0 0.00 0.28 0.00 82 1023.5
20260902210905 71 81 5.0 12.0 0.00 0.28 0.00 82 1023.6
20260902210405 71 78 5.0 12.0 0.00 0.28 0.00 83 1023.8
20260902205905 71 109 5.0 12.0 0.00 0.28 0.00 83 1023.9
20260902205404 71 106 5.0 14.0 0.00 0.28 0.00 83 1023.9
20260902204905 71 81 5.0 10.0 0.00 0.28 0.00 82 1023.9
20260902204405 70 104 5.0 10.0 0.00 0.28 0.00 81 1023.9
20260902203905 70 112 4.0 10.0 0.00 0.28 0.00 80 1024.0
20260902203405 70 111 5.0 12.0 0.00 0.28 0.00 79 1024.1
20260902202904 71 92 8.0 15.0 0.00 0.28 0.00 79 1024.1
20260902202404 71 76 9.0 16.0 0.00 0.28 0.00 82 1024.0
20260902201905 71 80 6.0 13.0 0.00 0.28 0.00 83 1024.1
20260902201406 70 79 6.0 15.0 0.00 0.28 0.00 85 1024.1
20260902200906 70 107 5.0 12.0 0.00 0.28 0.00 86 1024.1
20260902200405 70 103 5.0 13.0 0.00 0.28 0.00 86 1024.1
20260902195905 70 68 3.0 8.0 0.00 0.28 0.28 86 1024.2
20260902195405 70 85 4.0 9.0 0.00 0.28 0.28 86 1024.2
20260902194905 70 69 6.0 12.0 0.00 0.28 0.28 85 1024.2
20260902194405 70 86 7.0 13.0 0.00 0.28 0.28 85 1024.2
20260902193905 70 89 7.0 17.0 0.00 0.28 0.28 85 1024.3
20260902193405 70 92 5.0 13.0 0.00 0.28 0.28 85 1024.3
20260902192404 70 87 2.0 10.0 0.00 0.28 0.28 85 1024.3
20260902191905 70 82 4.0 9.0 0.00 0.28 0.28 85 1024.3
20260902191405 70 131 8.0 12.0 0.00 0.28 0.28 85 1024.3
20260902190905 70 105 7.0 16.0 0.00 0.28 0.28 85 1024.4
20260902190405 69 77 5.0 12.0 0.02 0.28 0.28 86 1024.4
20260902185405 69 114 6.0 14.0 0.03 0.28 0.28 88 1024.3
20260902184905 69 104 5.0 12.0 0.03 0.28 0.28 89 1024.3
20260902184405 69 109 3.0 9.0 0.03 0.28 0.28 89 1024.3
20260902183904 69 103 3.0 8.0 0.03 0.28 0.28 89 1024.3
20260902183405 69 74 3.0 6.0 0.06 0.28 0.28 89 1024.3
20260902182905 69 103 2.0 8.0 0.08 0.28 0.28 89 1024.3
20260902182405 69 113 2.0 8.0 0.09 0.28 0.28 89 1024.3
20260902181905 69 84 3.0 12.0 0.10 0.28 0.28 89 1024.4
20260902181404 69 68 5.0 12.0 0.10 0.28 0.28 89 1024.4
20260902180905 69 56 6.0 14.0 0.10 0.28 0.28 89 1024.4
20260902180405 69 77 7.0 13.0 0.08 0.26 0.26 89 1024.5
20260902175905 69 72 7.0 13.0 0.09 0.25 0.25 89 1024.5
20260902174905 68 100 6.0 13.0 0.11 0.25 0.25 89 1024.5
20260902174405 68 66 8.0 14.0 0.13 0.25 0.25 89 1024.6
20260902173904 68 66 8.0 14.0 0.16 0.25 0.25 89 1024.7
20260902173405 68 77 10.0 20.0 0.15 0.23 0.23 89 1024.7
20260902172905 69 79 7.0 17.0 0.20 0.20 0.20 90 1024.8
20260902172404 68 101 3.0 8.0 0.18 0.19 0.19 90 1024.5
20260902171904 68 114 2.0 6.0 0.17 0.18 0.18 90 1024.4
20260902170405 68 57 6.0 12.0 0.17 0.18 0.18 90 1024.6
20260902165905 68 46 7.0 13.0 0.16 0.17 0.17 89 1024.6
20260902165405 68 82 6.0 10.0 0.14 0.15 0.15 89 1024.7
20260902164904 68 69 7.0 14.0 0.13 0.14 0.14 89 1024.8
20260902164405 69 67 7.0 16.0 0.11 0.12 0.12 88 1024.8
20260902163905 69 85 4.0 12.0 0.09 0.09 0.09 87 1024.9
20260902163405 69 74 3.0 8.0 0.07 0.08 0.08 86 1024.8
20260902162905 69 133 4.0 9.0 0.00 0.01 0.01 86 1024.6
20260902162405 69 119 1.0 5.0 0.00 0.01 0.01 86 1024.6
20260902161405 70 147 5.0 10.0 0.01 0.01 0.01 86 1024.5
20260902160904 70 118 3.0 12.0 0.01 0.01 0.01 86 1024.5
20260902160405 70 157 4.0 8.0 0.01 0.01 0.01 86 1024.5
20260902155904 70 159 4.0 8.0 0.01 0.01 0.01 87 1024.5
20260902155405 70 117 2.0 8.0 0.01 0.01 0.01 87 1024.4
20260902154905 70 102 3.0 7.0 0.01 0.01 0.01 88 1024.3
20260902154404 69 83 2.0 7.0 0.01 0.01 0.01 88 1024.3
20260902153905 69 136 4.0 9.0 0.01 0.01 0.01 88 1024.3
20260902153405 69 136 5.0 9.0 0.01 0.01 0.01 88 1024.3
20260902152905 69 139 6.0 17.0 0.01 0.01 0.01 88 1024.3
20260902151904 69 60 2.0 7.0 0.00 0.00 0.00 88 1024.0
20260902151405 69 55 1.0 5.0 0.00 0.00 0.00 88 1023.9
20260902150904 69 92 2.0 8.0 0.00 0.00 0.00 88 1024.0
20260902145904 68 75 4.0 9.0 0.00 0.00 0.00 88 1024.0
20260902145405 68 126 3.0 9.0 0.00 0.00 0.00 88 1024.0
20260902144904 68 135 6.0 10.0 0.00 0.00 0.00 88 1023.9
20260902144405 68 119 7.0 13.0 0.00 0.00 0.00 88 1023.7
20260902143904 69 151 7.0 18.0 0.00 0.00 0.00 88 1023.9
20260902143405 69 124 6.0 14.0 0.00 0.00 0.00 88 1023.8
20260902142904 69 125 5.0 10.0 0.00 0.00 0.00 88 1023.6
20260902142404 69 163 6.0 12.0 0.00 0.00 0.00 88 1023.5
20260902141405 69 141 4.0 9.0 0.00 0.00 0.00 87 1023.4
20260902140905 69 166 6.0 13.0 0.00 0.00 0.00 87 1023.5
20260902140404 69 140 5.0 12.0 0.00 0.00 0.00 87 1023.5
20260902135904 69 154 6.0 12.0 0.00 0.00 0.00 86 1023.4
20260902135405 69 164 5.0 13.0 0.00 0.00 0.00 86 1023.4
20260902134904 70 133 6.0 10.0 0.00 0.00 0.00 86 1023.5
20260902133905 70 165 6.0 12.0 0.00 0.00 0.00 85 1023.5
20260902133404 70 132 5.0 12.0 0.00 0.00 0.00 86 1023.4
20260902132905 70 143 7.0 13.0 0.00 0.00 0.00 85 1023.3
20260902132405 70 144 6.0 15.0 0.00 0.00 0.00 85 1023.3
20260902131904 70 148 6.0 14.0 0.00 0.00 0.00 85 1023.3
20260902131405 70 149 6.0 13.0 0.00 0.00 0.00 85 1023.3
20260902130904 70 132 7.0 14.0 0.00 0.00 0.00 85 1023.4
20260902130405 70 146 6.0 12.0 0.00 0.00 0.00 85 1023.3
20260902125904 70 135 6.0 12.0 0.00 0.00 0.00 85 1023.3
20260902125405 69 136 5.0 12.0 0.00 0.00 0.00 85 1023.3
20260902124905 69 144 7.0 14.0 0.00 0.00 0.00 85 1023.3
20260902124404 69 160 1.0 8.0 0.00 0.00 0.00 86 1023.4
20260902123904 69 132 3.0 10.0 0.00 0.00 0.00 86 1023.3
20260902123405 69 158 5.0 9.0 0.00 0.00 0.00 86 1023.3
20260902122904 69 160 5.0 10.0 0.00 0.00 0.00 86 1023.4
20260902121905 69 77 5.0 13.0 0.00 0.00 0.00 86 1023.6
20260902120905 70 84 7.0 17.0 0.00 0.00 0.00 84 1023.6
20260902120405 71 110 9.0 15.0 0.00 0.00 0.00 82 1023.6
20260902115905 71 106 9.0 16.0 0.00 0.00 0.00 81 1023.6
20260902114905 73 94 7.0 15.0 0.00 0.00 0.00 78 1023.5
20260902114405 74 152 9.0 18.0 0.00 0.00 0.00 76 1023.5
20260902113905 74 114 6.0 16.0 0.00 0.00 0.00 76 1023.4
20260902113405 74 104 5.0 12.0 0.00 0.00 0.00 77 1023.4
20260902112905 73 68 7.0 14.0 0.00 0.00 0.00 78 1023.4
20260902112405 73 65 10.0 14.0 0.00 0.00 0.00 80 1023.5
20260902111905 72 73 7.0 12.0 0.00 0.00 0.00 82 1023.5
20260902111405 72 88 5.0 10.0 0.00 0.00 0.00 82 1023.6
20260902110905 72 96 9.0 15.0 0.00 0.00 0.00 80 1023.6
20260902110405 73 88 9.0 18.0 0.00 0.00 0.00 78 1023.7
20260902105904 73 85 10.0 20.0 0.00 0.00 0.00 76 1023.7
20260902105404 74 82 10.0 26.0 0.00 0.00 0.00 76 1023.7
20260902104905 74 67 11.0 23.0 0.00 0.00 0.00 77 1023.6
20260902103905 74 74 10.0 20.0 0.00 0.00 0.00 78 1023.6
20260902103405 75 69 12.0 20.0 0.00 0.00 0.00 78 1023.6
20260902102905 75 96 9.0 23.0 0.00 0.00 0.00 76 1023.6
20260902101405 75 104 11.0 20.0 0.00 0.00 0.00 77 1023.8
20260902100904 76 100 10.0 20.0 0.00 0.00 0.00 76 1023.9
20260902100404 76 92 12.0 23.0 0.00 0.00 0.00 76 1023.8
20260902095905 76 77 7.0 18.0 0.00 0.00 0.00 77 1023.9
20260902095405 77 116 11.0 20.0 0.00 0.00 0.00 75 1023.9
20260902094904 77 93 9.0 20.0 0.00 0.00 0.00 74 1024.0
20260902094404 77 106 10.0 25.0 0.00 0.00 0.00 72 1023.9
20260902093905 78 80 10.0 20.0 0.00 0.00 0.00 70 1023.9
20260902092904 78 84 8.0 14.0 0.00 0.00 0.00 71 1023.9
20260902092405 77 86 10.0 20.0 0.00 0.00 0.00 72 1023.9
20260902091905 77 82 9.0 15.0 0.00 0.00 0.00 72 1023.9
20260902091405 77 106 9.0 20.0 0.00 0.00 0.00 73 1024.0
20260902090904 77 82 9.0 16.0 0.00 0.00 0.00 73 1023.9
20260902090406 76 92 11.0 22.0 0.00 0.00 0.00 75 1024.0
20260902085905 77 103 10.0 20.0 0.00 0.00 0.00 75 1024.0
20260902085405 77 92 9.0 18.0 0.00 0.00 0.00 76 1024.0
20260902084904 76 111 11.0 20.0 0.00 0.00 0.00 76 1024.1
20260902084405 77 87 7.0 14.0 0.00 0.00 0.00 76 1024.2
20260902083905 77 110 9.0 14.0 0.00 0.00 0.00 75 1024.2
20260902082905 78 104 9.0 17.0 0.00 0.00 0.00 71 1024.2
20260902082404 78 93 8.0 16.0 0.00 0.00 0.00 67 1024.2
20260902081904 79 99 4.0 14.0 0.00 0.00 0.00 65 1024.1
20260902081405 78 80 6.0 12.0 0.00 0.00 0.00 63 1024.1
20260902080404 78 74 7.0 14.0 0.00 0.00 0.00 64 1024.2
20260902075905 78 102 7.0 17.0 0.00 0.00 0.00 67 1024.3
20260902075405 78 89 10.0 16.0 0.00 0.00 0.00 67 1024.5
20260902074905 78 145 9.0 16.0 0.00 0.00 0.00 67 1024.6
20260902074404 78 119 10.0 18.0 0.00 0.00 0.00 68 1024.7
20260902073905 78 142 11.0 20.0 0.00 0.00 0.00 66 1024.7
20260902073405 78 76 10.0 18.0 0.00 0.00 0.00 66 1024.8
20260902072904 78 95 7.0 17.0 0.00 0.00 0.00 67 1024.8
20260902072405 78 129 9.0 17.0 0.00 0.00 0.00 65 1024.9
20260902071905 78 112 11.0 18.0 0.00 0.00 0.00 64 1025.0
20260902070905 78 72 6.0 14.0 0.00 0.00 0.00 69 1025.0
20260902070405 78 128 9.0 17.0 0.00 0.00 0.00 67 1025.1
20260902065905 78 97 9.0 20.0 0.00 0.00 0.00 66 1025.4
20260902065405 78 75 9.0 17.0 0.00 0.00 0.00 66 1025.4
20260902064904 77 88 9.0 16.0 0.00 0.00 0.00 67 1025.5
20260902064405 77 85 9.0 17.0 0.00 0.00 0.00 66 1025.6
20260902063904 78 65 7.0 15.0 0.00 0.00 0.00 66 1025.6
20260902063405 78 68 7.0 15.0 0.00 0.00 0.00 66 1025.6
20260902062904 77 98 7.0 16.0 0.00 0.00 0.00 69 1025.6
20260902062405 77 76 9.0 16.0 0.00 0.00 0.00 67 1025.6
20260902061905 77 98 9.0 20.0 0.00 0.00 0.00 68 1025.6
20260902061405 77 75 7.0 16.0 0.00 0.00 0.00 70 1025.6
20260902060904 76 140 11.0 17.0 0.00 0.00 0.00 70 1025.7
20260902055905 76 91 6.0 17.0 0.00 0.00 0.00 73 1025.7
20260902054404 76 100 11.0 17.0 0.00 0.00 0.00 74 1025.6
20260902053904 76 102 9.0 18.0 0.00 0.00 0.00 74 1025.7
20260902053405 76 117 5.0 15.0 0.00 0.00 0.00 75 1025.6
20260902051904 76 123 7.0 15.0 0.00 0.00 0.00 73 1025.6
20260902051404 76 126 9.0 18.0 0.00 0.00 0.00 74 1025.5
20260902050905 75 101 5.0 14.0 0.00 0.00 0.00 76 1025.5
20260902050404 75 88 5.0 13.0 0.00 0.00 0.00 76 1025.5
20260902045904 75 114 9.0 15.0 0.00 0.00 0.00 77 1025.5
20260902045404 74 151 4.0 12.0 0.00 0.00 0.00 77 1025.5
20260902044904 74 113 6.0 12.0 0.00 0.00 0.00 76 1025.4
20260902044405 74 99 6.0 12.0 0.00 0.00 0.00 76 1025.4
20260902043904 74 71 5.0 12.0 0.00 0.00 0.00 75 1025.4
20260902043404 73 84 9.0 16.0 0.00 0.00 0.00 75 1025.4
20260902042904 73 88 4.0 12.0 0.00 0.00 0.00 77 1025.3
20260902042405 73 114 3.0 12.0 0.00 0.00 0.00 78 1025.4